TimePDT,TemperatureF,Dew PointF,Humidity,Sea Level PressureIn,VisibilityMPH,Wind Direction,Wind SpeedMPH,Gust SpeedMPH,PrecipitationIn,Events,Conditions,WindDirDegrees,DateUTC
12:15 AM,51.8,33.8,50,30.07,10.0,North,3.5,-,N/A,,Clear,350,2014-05-25 07:15:00
12:35 AM,48.2,33.8,58,30.07,10.0,Calm,Calm,-,N/A,,Clear,0,2014-05-25 07:35:00
12:55 AM,48.2,33.8,58,30.08,10.0,Calm,Calm,-,N/A,,Clear,0,2014-05-25 07:55:00
1:15 AM,48.2,33.8,58,30.08,10.0,NNW,4.6,-,N/A,,Clear,330,2014-05-25 08:15:00
1:35 AM,46.4,33.8,62,30.08,10.0,Calm,Calm,-,N/A,,Clear,0,2014-05-25 08:35:00
1:55 AM,48.2,33.8,58,30.08,10.0,Calm,Calm,-,N/A,,Clear,0,2014-05-25 08:55:00
2:15 AM,48.2,33.8,58,30.08,10.0,Calm,Calm,-,N/A,,Clear,0,2014-05-25 09:15:00
2:35 AM,46.4,33.8,62,30.07,10.0,Calm,Calm,-,N/A,,Clear,0,2014-05-25 09:35:00
2:55 AM,44.6,30.2,57,30.07,10.0,ESE,3.5,-,N/A,,Clear,120,2014-05-25 09:55:00
3:15 AM,44.6,33.8,66,30.07,10.0,Calm,Calm,-,N/A,,Clear,0,2014-05-25 10:15:00
3:35 AM,42.8,30.2,61,30.07,10.0,NNW,5.8,-,N/A,,Clear,330,2014-05-25 10:35:00
3:55 AM,42.8,32.0,66,30.07,10.0,NNW,4.6,-,N/A,,Clear,340,2014-05-25 10:55:00
4:15 AM,44.6,33.8,66,30.07,10.0,Calm,Calm,-,N/A,,Clear,0,2014-05-25 11:15:00
4:35 AM,42.8,30.2,61,30.07,10.0,Calm,Calm,-,N/A,,Clear,0,2014-05-25 11:35:00
4:55 AM,44.6,32.0,61,30.07,10.0,Calm,Calm,-,N/A,,Clear,0,2014-05-25 11:55:00
5:15 AM,42.8,30.2,61,30.07,10.0,Calm,Calm,-,N/A,,Clear,0,2014-05-25 12:15:00
5:35 AM,42.8,30.2,61,30.08,10.0,Calm,Calm,-,N/A,,Clear,0,2014-05-25 12:35:00
5:55 AM,44.6,30.2,57,30.07,10.0,Calm,Calm,-,N/A,,Clear,0,2014-05-25 12:55:00
6:15 AM,44.6,32.0,61,30.07,10.0,Calm,Calm,-,N/A,,Clear,0,2014-05-25 13:15:00
6:35 AM,46.4,35.6,66,30.08,10.0,Calm,Calm,-,N/A,,Clear,0,2014-05-25 13:35:00
6:55 AM,46.4,35.6,66,30.08,10.0,Calm,Calm,-,N/A,,Clear,0,2014-05-25 13:55:00
7:15 AM,46.4,33.8,62,30.08,10.0,Calm,Calm,-,N/A,,Clear,0,2014-05-25 14:15:00
8:15 AM,51.8,37.4,58,30.08,10.0,Calm,Calm,-,N/A,,Clear,0,2014-05-25 15:15:00
8:35 AM,53.6,35.6,51,30.08,10.0,Calm,Calm,-,N/A,,Clear,0,2014-05-25 15:35:00
8:55 AM,53.6,35.6,51,30.07,10.0,SE,4.6,-,N/A,,Clear,130,2014-05-25 15:55:00
9:15 AM,55.4,37.4,51,30.07,10.0,Calm,Calm,-,N/A,,Clear,0,2014-05-25 16:15:00
9:35 AM,57.2,37.4,48,30.07,10.0,East,4.6,-,N/A,,Clear,80,2014-05-25 16:35:00
9:55 AM,59.0,37.4,45,30.06,10.0,SE,4.6,-,N/A,,Clear,140,2014-05-25 16:55:00
10:15 AM,60.8,37.4,42,30.06,10.0,South,3.5,-,N/A,,Clear,190,2014-05-25 17:15:00
10:35 AM,60.8,35.6,39,30.05,10.0,Calm,Calm,-,N/A,,Clear,0,2014-05-25 17:35:00
10:55 AM,62.6,37.4,39,30.04,10.0,Calm,Calm,-,N/A,,Clear,0,2014-05-25 17:55:00
11:15 AM,66.2,39.2,37,30.03,10.0,Calm,Calm,-,N/A,,Clear,0,2014-05-25 18:15:00
11:35 AM,68.0,39.2,35,30.02,10.0,Calm,Calm,-,N/A,,Clear,0,2014-05-25 18:35:00
11:55 AM,66.2,39.2,37,30.01,10.0,Calm,Calm,-,N/A,,Clear,0,2014-05-25 18:55:00
12:15 PM,68.0,39.2,35,30.00,10.0,ENE,3.5,-,N/A,,Clear,60,2014-05-25 19:15:00
12:35 PM,69.8,39.2,33,30.00,10.0,Calm,Calm,-,N/A,,Clear,0,2014-05-25 19:35:00
12:55 PM,68.0,37.4,33,29.99,10.0,Calm,Calm,-,N/A,,Clear,0,2014-05-25 19:55:00
1:15 PM,71.6,39.2,31,29.98,10.0,Calm,Calm,-,N/A,,Clear,0,2014-05-25 20:15:00
1:35 PM,69.8,41.0,35,29.98,10.0,NNW,4.6,-,N/A,,Clear,340,2014-05-25 20:35:00
1:55 PM,71.6,42.8,35,29.97,10.0,NNW,3.5,-,N/A,,Clear,340,2014-05-25 20:55:00
2:35 PM,73.4,42.8,33,29.96,10.0,North,6.9,-,N/A,,Clear,350,2014-05-25 21:35:00
2:55 PM,73.4,41.0,31,29.94,10.0,NNW,6.9,-,N/A,,Clear,330,2014-05-25 21:55:00
3:15 PM,75.2,41.0,29,29.94,10.0,North,6.9,-,N/A,,Clear,350,2014-05-25 22:15:00
3:35 PM,73.4,39.2,29,29.93,10.0,NW,4.6,-,N/A,,Clear,320,2014-05-25 22:35:00
3:55 PM,75.2,41.0,29,29.93,10.0,NW,5.8,-,N/A,,Clear,320,2014-05-25 22:55:00
4:15 PM,73.4,39.2,29,29.93,10.0,WNW,8.1,-,N/A,,Clear,300,2014-05-25 23:15:00
4:35 PM,75.2,41.0,29,29.92,10.0,West,9.2,-,N/A,,Clear,280,2014-05-25 23:35:00
4:55 PM,75.2,41.0,29,29.91,10.0,WNW,9.2,-,N/A,,Clear,300,2014-05-25 23:55:00
5:15 PM,73.4,41.0,31,29.91,10.0,NW,9.2,-,N/A,,Clear,310,2014-05-26 00:15:00
5:35 PM,75.2,42.8,31,29.91,10.0,WNW,8.1,-,N/A,,Clear,300,2014-05-26 00:35:00
5:55 PM,73.4,41.0,31,29.91,10.0,NW,10.4,-,N/A,,Clear,310,2014-05-26 00:55:00
6:15 PM,71.6,42.8,35,29.90,10.0,NW,10.4,-,N/A,,Clear,310,2014-05-26 01:15:00
6:35 PM,71.6,42.8,35,29.91,10.0,NNW,6.9,-,N/A,,Clear,330,2014-05-26 01:35:00
6:55 PM,71.6,42.8,35,29.90,10.0,NNW,4.6,-,N/A,,Clear,330,2014-05-26 01:55:00
7:15 PM,71.6,42.8,35,29.91,10.0,NNW,4.6,-,N/A,,Clear,330,2014-05-26 02:15:00
7:35 PM,71.6,42.8,35,29.91,10.0,North,3.5,-,N/A,,Clear,350,2014-05-26 02:35:00
7:55 PM,69.8,42.8,38,29.91,10.0,NW,6.9,-,N/A,,Clear,320,2014-05-26 02:55:00
8:15 PM,66.2,41.0,40,29.91,10.0,NW,6.9,-,N/A,,Clear,310,2014-05-26 03:15:00
8:35 PM,64.4,39.2,40,29.92,10.0,WNW,9.2,-,N/A,,Clear,300,2014-05-26 03:35:00
8:55 PM,64.4,39.2,40,29.93,10.0,NW,10.4,-,N/A,,Clear,310,2014-05-26 03:55:00
9:15 PM,64.4,37.4,37,29.94,10.0,WNW,12.7,-,N/A,,Clear,300,2014-05-26 04:15:00
9:35 PM,64.4,37.4,37,29.96,10.0,WNW,15.0,-,N/A,,Clear,300,2014-05-26 04:35:00
9:55 PM,64.4,35.6,34,29.97,10.0,WNW,12.7,-,N/A,,Partly Cloudy,290,2014-05-26 04:55:00
10:15 PM,62.6,35.6,37,29.98,10.0,WNW,12.7,20.7,N/A,,Partly Cloudy,290,2014-05-26 05:15:00
10:35 PM,62.6,35.6,37,29.99,10.0,WNW,17.3,-,N/A,,Scattered Clouds,290,2014-05-26 05:35:00
10:55 PM,62.6,35.6,37,29.99,10.0,WNW,11.5,-,N/A,,Mostly Cloudy,300,2014-05-26 05:55:00
11:15 PM,62.6,37.4,39,29.99,10.0,WNW,11.5,-,N/A,,Mostly Cloudy,290,2014-05-26 06:15:00
11:35 PM,60.8,37.4,42,30.00,10.0,WNW,8.1,-,N/A,,Overcast,290,2014-05-26 06:35:00
11:55 PM,60.8,37.4,42,29.99,10.0,WNW,11.5,-,N/A,,Mostly Cloudy,290,2014-05-26 06:55:00